Time,TemperatureF,DewpointF,PressureIn,WindDirection,WindDirectionDegrees,WindSpeedMPH,WindSpeedGustMPH,Humidity,HourlyPrecipIn,Conditions,Clouds,dailyrainin,SoftwareType,DateUTC
2013-03-20 00:07:00,27.3,15.0,29.99,WNW,300,5.0,10.0,59,0.00,,,0.00,weatherlink.com 1.10,2013-03-20 04:07:00,
2013-03-20 00:22:00,26.9,14.0,29.99,SW,236,8.0,9.0,59,0.00,,,0.00,weatherlink.com 1.10,2013-03-20 04:22:00,
2013-03-20 00:37:00,26.6,14.0,29.99,NW,313,4.0,11.0,60,0.00,,,0.00,weatherlink.com 1.10,2013-03-20 04:37:00,
2013-03-20 00:52:00,26.3,14.0,29.99,West,278,6.0,10.0,60,0.00,,,0.00,weatherlink.com 1.10,2013-03-20 04:52:00,
2013-03-20 01:07:00,26.2,14.0,29.99,NW,314,5.0,14.0,60,0.00,,,0.00,weatherlink.com 1.10,2013-03-20 05:07:00,
2013-03-20 01:22:00,25.8,14.0,29.99,West,277,3.0,13.0,61,0.00,,,0.00,weatherlink.com 1.10,2013-03-20 05:22:00,
2013-03-20 01:37:00,25.8,14.0,29.99,West,270,8.0,12.0,61,0.00,,,0.00,weatherlink.com 1.10,2013-03-20 05:37:00,
2013-03-20 01:53:00,25.5,14.0,29.99,West,267,6.0,9.0,61,0.00,,,0.00,weatherlink.com 1.10,2013-03-20 05:53:00,
2013-03-20 02:08:00,25.4,14.0,29.99,WNW,293,2.0,9.0,63,0.00,,,0.00,weatherlink.com 1.10,2013-03-20 06:08:00,
2013-03-20 02:23:00,25.6,14.0,29.99,WNW,302,5.0,11.0,63,0.00,,,0.00,weatherlink.com 1.10,2013-03-20 06:23:00,
2013-03-20 02:38:00,25.7,15.0,29.98,West,280,5.0,12.0,63,0.00,,,0.00,weatherlink.com 1.10,2013-03-20 06:38:00,
2013-03-20 02:53:00,25.7,15.0,29.99,NW,318,4.0,14.0,63,0.00,,,0.00,weatherlink.com 1.10,2013-03-20 06:53:00,
2013-03-20 03:08:00,25.5,15.0,29.99,West,276,5.0,13.0,64,0.00,,,0.00,weatherlink.com 1.10,2013-03-20 07:08:00,
2013-03-20 03:23:00,25.4,15.0,29.98,WNW,287,6.0,13.0,65,0.00,,,0.00,weatherlink.com 1.10,2013-03-20 07:23:00,
2013-03-20 03:38:00,25.2,15.0,29.98,NW,312,3.0,11.0,66,0.00,,,0.00,weatherlink.com 1.10,2013-03-20 07:38:00,
2013-03-20 03:53:00,25.1,15.0,29.98,NW,318,5.0,13.0,66,0.00,,,0.00,weatherlink.com 1.10,2013-03-20 07:53:00,
2013-03-20 04:08:00,24.9,15.0,29.97,WNW,293,3.0,14.0,66,0.00,,,0.00,weatherlink.com 1.10,2013-03-20 08:08:00,
2013-03-20 04:23:00,24.7,15.0,29.97,WNW,286,3.0,9.0,67,0.00,,,0.00,weatherlink.com 1.10,2013-03-20 08:23:00,
2013-03-20 04:38:00,24.5,15.0,29.97,West,278,3.0,10.0,68,0.00,,,0.00,weatherlink.com 1.10,2013-03-20 08:38:00,
2013-03-20 04:53:00,24.4,16.0,29.97,WNW,293,3.0,7.0,69,0.00,,,0.00,weatherlink.com 1.10,2013-03-20 08:53:00,
2013-03-20 05:08:00,24.3,15.0,29.97,WNW,298,4.0,10.0,69,0.00,,,0.00,weatherlink.com 1.10,2013-03-20 09:08:00,
2013-03-20 05:23:00,24.2,16.0,29.97,WNW,288,2.0,9.0,70,0.00,,,0.00,weatherlink.com 1.10,2013-03-20 09:23:00,
2013-03-20 05:38:00,24.0,16.0,29.97,WNW,284,5.0,15.0,71,0.00,,,0.00,weatherlink.com 1.10,2013-03-20 09:38:00,
2013-03-20 05:53:00,23.7,16.0,29.97,West,264,1.0,9.0,72,0.00,,,0.00,weatherlink.com 1.10,2013-03-20 09:53:00,
2013-03-20 06:08:00,23.5,16.0,29.97,West,269,2.0,8.0,73,0.00,,,0.00,weatherlink.com 1.10,2013-03-20 10:08:00,
2013-03-20 06:23:00,23.4,16.0,29.97,West,262,4.0,9.0,72,0.00,,,0.00,weatherlink.com 1.10,2013-03-20 10:23:00,
2013-03-20 06:38:00,23.4,16.0,29.97,WNW,289,3.0,9.0,73,0.00,,,0.00,weatherlink.com 1.10,2013-03-20 10:38:00,
2013-03-20 06:53:00,23.2,16.0,29.97,WNW,297,4.0,12.0,74,0.00,,,0.00,weatherlink.com 1.10,2013-03-20 10:53:00,
2013-03-20 07:08:00,23.0,16.0,29.97,West,273,9.0,9.0,74,0.00,,,0.00,weatherlink.com 1.10,2013-03-20 11:08:00,
2013-03-20 07:23:00,22.7,16.0,29.97,WNW,286,3.0,9.0,75,0.00,,,0.00,weatherlink.com 1.10,2013-03-20 11:23:00,
2013-03-20 07:38:00,22.6,16.0,29.98,NW,304,2.0,10.0,75,0.00,,,0.00,weatherlink.com 1.10,2013-03-20 11:38:00,
2013-03-20 07:53:00,22.3,15.0,29.98,WNW,302,6.0,9.0,74,0.00,,,0.00,weatherlink.com 1.10,2013-03-20 11:53:00,
2013-03-20 08:08:00,22.2,15.0,29.99,WNW,291,7.0,11.0,74,0.00,,,0.00,weatherlink.com 1.10,2013-03-20 12:08:00,
2013-03-20 08:23:00,22.2,14.0,29.99,West,276,6.0,9.0,72,0.00,,,0.00,weatherlink.com 1.10,2013-03-20 12:23:00,
2013-03-20 08:38:00,22.2,15.0,29.99,NW,304,5.0,11.0,73,0.00,,,0.00,weatherlink.com 1.10,2013-03-20 12:38:00,
2013-03-20 08:53:00,22.4,15.0,29.98,NW,312,4.0,11.0,74,0.00,,,0.00,weatherlink.com 1.10,2013-03-20 12:53:00,
2013-03-20 09:08:00,22.6,15.0,29.99,WNW,291,2.0,10.0,73,0.00,,,0.00,weatherlink.com 1.10,2013-03-20 13:08:00,
2013-03-20 09:24:00,22.5,16.0,29.99,SW,234,6.0,13.0,75,0.00,,,0.00,weatherlink.com 1.10,2013-03-20 13:24:00,
2013-03-20 09:39:00,22.7,16.0,29.99,NW,326,5.0,14.0,74,0.00,,,0.00,weatherlink.com 1.10,2013-03-20 13:39:00,
2013-03-20 09:54:00,22.4,16.0,29.99,West,270,5.0,13.0,76,0.00,,,0.00,weatherlink.com 1.10,2013-03-20 13:54:00,
2013-03-20 10:09:00,22.7,16.0,29.99,NW,304,9.0,18.0,75,0.00,,,0.00,weatherlink.com 1.10,2013-03-20 14:09:00,
2013-03-20 10:24:00,22.5,16.0,29.99,WNW,293,8.0,16.0,76,0.00,,,0.00,weatherlink.com 1.10,2013-03-20 14:24:00,
2013-03-20 10:39:00,22.3,16.0,29.99,NW,307,7.0,13.0,76,0.00,,,0.00,weatherlink.com 1.10,2013-03-20 14:39:00,
2013-03-20 10:54:00,22.1,15.0,29.99,WNW,293,13.0,15.0,75,0.00,,,0.00,weatherlink.com 1.10,2013-03-20 14:54:00,
2013-03-20 11:09:00,22.1,15.0,29.99,West,262,10.0,15.0,75,0.00,,,0.00,weatherlink.com 1.10,2013-03-20 15:09:00,
2013-03-20 11:24:00,21.7,16.0,29.99,SW,228,14.0,14.0,78,0.00,,,0.00,weatherlink.com 1.10,2013-03-20 15:24:00,
2013-03-20 11:39:00,21.8,17.0,30.00,WNW,293,7.0,13.0,80,0.00,,,0.00,weatherlink.com 1.10,2013-03-20 15:39:00,
2013-03-20 11:54:00,21.6,16.0,29.99,WNW,288,4.0,15.0,80,0.00,,,0.00,weatherlink.com 1.10,2013-03-20 15:54:00,
2013-03-20 12:09:00,21.8,16.0,30.00,SW,233,13.0,16.0,79,0.00,,,0.00,weatherlink.com 1.10,2013-03-20 16:09:00,
2013-03-20 12:24:00,22.0,17.0,30.00,WSW,246,4.0,16.0,80,0.00,,,0.00,weatherlink.com 1.10,2013-03-20 16:24:00,
2013-03-20 12:39:00,23.1,16.0,30.00,NW,315,8.0,16.0,74,0.00,,,0.00,weatherlink.com 1.10,2013-03-20 16:39:00,
2013-03-20 12:54:00,22.8,15.0,30.00,WNW,283,3.0,13.0,72,0.00,,,0.00,weatherlink.com 1.10,2013-03-20 16:54:00,
2013-03-20 13:24:00,22.6,15.0,29.99,WSW,245,7.0,16.0,71,0.00,,,0.00,weatherlink.com 1.10,2013-03-20 17:24:00,
2013-03-20 13:39:00,22.8,15.0,29.99,WNW,299,13.0,15.0,72,0.00,,,0.00,weatherlink.com 1.10,2013-03-20 17:39:00,
2013-03-20 13:54:00,21.7,13.0,29.99,West,276,7.0,20.0,70,0.00,,,0.00,weatherlink.com 1.10,2013-03-20 17:54:00,
2013-03-20 14:09:00,21.3,15.0,30.00,West,280,6.0,14.0,76,0.00,,,0.00,weatherlink.com 1.10,2013-03-20 18:09:00,
2013-03-20 14:24:00,20.9,17.0,30.00,WNW,298,9.0,15.0,83,0.00,,,0.00,weatherlink.com 1.10,2013-03-20 18:24:00,
2013-03-20 14:40:00,20.6,15.0,30.00,NW,305,5.0,16.0,80,0.00,,,0.00,weatherlink.com 1.10,2013-03-20 18:40:00,
2013-03-20 14:54:00,21.2,17.0,29.99,WNW,300,10.0,11.0,84,0.00,,,0.00,weatherlink.com 1.10,2013-03-20 18:54:00,
2013-03-20 15:09:00,21.7,16.0,29.99,West,262,7.0,11.0,79,0.00,,,0.00,weatherlink.com 1.10,2013-03-20 19:09:00,
2013-03-20 15:24:00,21.7,14.0,29.99,WSW,250,11.0,20.0,72,0.00,,,0.00,weatherlink.com 1.10,2013-03-20 19:24:00,
2013-03-20 15:39:00,21.5,15.0,29.98,West,259,2.0,12.0,76,0.00,,,0.00,weatherlink.com 1.10,2013-03-20 19:39:00,
2013-03-20 15:54:00,19.4,15.0,29.99,WNW,297,7.0,17.0,84,0.00,,,0.00,weatherlink.com 1.10,2013-03-20 19:54:00,
2013-03-20 16:09:00,20.0,16.0,29.99,West,280,5.0,10.0,85,0.00,,,0.00,weatherlink.com 1.10,2013-03-20 20:09:00,
2013-03-20 16:25:00,19.8,16.0,29.99,West,274,6.0,13.0,84,0.00,,,0.00,weatherlink.com 1.10,2013-03-20 20:25:00,
2013-03-20 16:40:00,20.4,16.0,30.00,WNW,294,6.0,11.0,83,0.00,,,0.00,weatherlink.com 1.10,2013-03-20 20:40:00,
2013-03-20 16:55:00,20.0,16.0,30.00,West,266,9.0,12.0,85,0.00,,,0.00,weatherlink.com 1.10,2013-03-20 20:55:00,
2013-03-20 17:10:00,19.2,15.0,30.00,WNW,295,7.0,17.0,84,0.00,,,0.00,weatherlink.com 1.10,2013-03-20 21:10:00,
2013-03-20 17:25:00,19.1,15.0,30.00,NW,307,3.0,14.0,85,0.00,,,0.00,weatherlink.com 1.10,2013-03-20 21:25:00,
2013-03-20 17:40:00,19.0,15.0,30.00,WNW,300,5.0,14.0,85,0.00,,,0.00,weatherlink.com 1.10,2013-03-20 21:40:00,
2013-03-20 17:55:00,19.3,15.0,30.00,West,273,4.0,9.0,83,0.00,,,0.00,weatherlink.com 1.10,2013-03-20 21:55:00,
2013-03-20 18:10:00,19.4,15.0,30.00,WNW,296,5.0,7.0,84,0.00,,,0.00,weatherlink.com 1.10,2013-03-20 22:10:00,
2013-03-20 18:25:00,19.2,15.0,30.01,WNW,283,3.0,5.0,85,0.00,,,0.00,weatherlink.com 1.10,2013-03-20 22:25:00,
2013-03-20 18:40:00,18.9,15.0,30.01,West,271,2.0,8.0,85,0.00,,,0.00,weatherlink.com 1.10,2013-03-20 22:40:00,
2013-03-20 18:55:00,18.8,15.0,30.01,West,276,4.0,8.0,85,0.00,,,0.00,weatherlink.com 1.10,2013-03-20 22:55:00,
2013-03-20 19:10:00,18.6,15.0,30.02,West,281,2.0,8.0,85,0.00,,,0.00,weatherlink.com 1.10,2013-03-20 23:10:00,
2013-03-20 19:25:00,18.6,15.0,30.02,West,265,3.0,7.0,85,0.00,,,0.00,weatherlink.com 1.10,2013-03-20 23:25:00,
2013-03-20 19:40:00,18.2,14.0,30.02,NW,309,2.0,8.0,85,0.00,,,0.00,weatherlink.com 1.10,2013-03-20 23:40:00,
2013-03-20 19:55:00,17.9,14.0,30.02,West,263,4.0,5.0,85,0.00,,,0.00,weatherlink.com 1.10,2013-03-20 23:55:00,
2013-03-20 20:10:00,17.7,14.0,30.02,West,263,2.0,6.0,85,0.00,,,0.00,weatherlink.com 1.10,2013-03-21 00:10:00,
2013-03-20 20:25:00,17.7,14.0,30.02,WNW,287,1.0,5.0,85,0.00,,,0.00,weatherlink.com 1.10,2013-03-21 00:25:00,
2013-03-20 20:40:00,17.6,14.0,30.02,NW,311,0.0,4.0,85,0.00,,,0.00,weatherlink.com 1.10,2013-03-21 00:40:00,
2013-03-20 20:55:00,17.3,14.0,30.02,West,262,2.0,5.0,85,0.00,,,0.00,weatherlink.com 1.10,2013-03-21 00:55:00,
2013-03-20 21:10:00,17.1,13.0,30.02,West,266,0.0,3.0,85,0.00,,,0.00,weatherlink.com 1.10,2013-03-21 01:10:00,
2013-03-20 21:25:00,16.7,13.0,30.02,WNW,283,0.0,1.0,85,0.00,,,0.00,weatherlink.com 1.10,2013-03-21 01:25:00,
2013-03-20 21:40:00,16.8,13.0,30.02,WNW,293,3.0,3.0,85,0.00,,,0.00,weatherlink.com 1.10,2013-03-21 01:40:00,
2013-03-20 21:55:00,16.7,13.0,30.02,West,271,0.0,2.0,85,0.00,,,0.00,weatherlink.com 1.10,2013-03-21 01:55:00,
2013-03-20 22:10:00,16.8,13.0,30.02,West,262,0.0,4.0,85,0.00,,,0.00,weatherlink.com 1.10,2013-03-21 02:10:00,
2013-03-20 22:25:00,16.5,13.0,30.02,WSW,243,0.0,3.0,85,0.00,,,0.00,weatherlink.com 1.10,2013-03-21 02:25:00,
2013-03-20 22:40:00,16.2,13.0,30.02,West,273,1.0,2.0,85,0.00,,,0.00,weatherlink.com 1.10,2013-03-21 02:40:00,
2013-03-20 22:55:00,16.2,13.0,30.02,WSW,254,0.0,2.0,85,0.00,,,0.00,weatherlink.com 1.10,2013-03-21 02:55:00,
2013-03-20 23:10:00,15.3,12.0,30.01,West,269,0.0,1.0,85,0.00,,,0.00,weatherlink.com 1.10,2013-03-21 03:10:00,
2013-03-20 23:25:00,14.9,11.0,30.01,WSW,246,0.0,1.0,85,0.00,,,0.00,weatherlink.com 1.10,2013-03-21 03:25:00,
2013-03-20 23:40:00,14.9,11.0,30.01,WSW,253,0.0,0.0,85,0.00,,,0.00,weatherlink.com 1.10,2013-03-21 03:40:00,
2013-03-20 23:55:00,14.9,11.0,30.00,WSW,250,0.0,0.0,85,0.00,,,0.00,weatherlink.com 1.10,2013-03-21 03:55:00,